Regional Weather Roundup
Issued by NWS

Home | Current Version | Previous Version | Text Only | Print | Product List | Glossary Off
Versions: 1 2 3 4 5 6 7 8 9 10 11 12 13 14 15 16 17 18 19 20 21 22 23 24 25 26 27 28 29 30 31 32 33 34 35 36 37 38 39 40 41 42 43 44 45 46 47 48 49 50

000
ASUS43 KLMK 300910
RWRKY
KENTUCKY REGIONAL WEATHER ROUNDUP
NATIONAL WEATHER SERVICE LOUISVILLE KY
500 AM EDT THU OCT 30 2014

NOTE "FAIR" INDICATES FEW OR NO CLOUDS BELOW 12,000 FEET
WITH NO SIGNIFICANT WEATHER AND/OR OBSTRUCTIONS TO VISIBILITY.

KYZ001>023-026-027-061>063-070>075-301000-
WESTERN AND SOUTH CENTRAL KENTUCKY

CITY           SKY/WX    TMP DP  RH WIND       PRES   REMARKS
PADUCAH        CLEAR     36  35  96 CALM      30.16R
HENDERSON      CLEAR     36  34  93 CALM      30.16S
OWENSBORO      CLEAR     39  37  92 CALM      30.16S
HOPKINSVILLE   CLEAR     41  38  91 W3        30.15R
BOWLING GREEN  CLEAR     38  36  92 CALM      30.15S
GLASGOW        CLEAR     37  37 100 CALM      30.14S
$$

KYZ024-025-028>034-038-045-046-053-301000-
NORTH CENTRAL KENTUCKY

CITY           SKY/WX    TMP DP  RH WIND       PRES   REMARKS
LOUISVILLE/SDF PTCLDY    41  36  82 VRB5      30.15S
LOUISVILLE/LOU CLEAR     39  35  86 CALM      30.16S
FORT KNOX      CLEAR     35  33  93 NW2       30.14S
$$

KYZ035>037-039>044-047>052-055>060-089>105-301000-
NORTHEAST KENTUCKY

CITY           SKY/WX    TMP DP  RH WIND       PRES   REMARKS
LEXINGTON      CLEAR     39  34  82 CALM      30.14S
COVINGTON      PTCLDY    44  34  67 NW3       30.13S
FRANKFORT      PTCLDY    36  33  89 CALM      30.13S
$$

KYZ054-064>069-076>088-106>120-301000-
SOUTHEAST KENTUCKY

CITY           SKY/WX    TMP DP  RH WIND       PRES   REMARKS
JACKSON        CLEAR     40  33  76 CALM      30.12R
LONDON         CLEAR     39  35  86 N3        30.12S
SOMERSET       CLEAR     37  36  93 N3        30.14S
MIDDLESBORO    FOG       37  37 100 CALM      30.12S VSB 1/4
MONTICELLO     SUNNY     36  36 100 CALM      30.14S
$$




USA.gov is the U.S. government's official web portal to all federal, state and local government web resources and services.